Flag for Germany Weather past 2 weeks in Monheim am Rhein, North Rhine-Westphalia, Germany

Now
43 °F

Light rain. Passing clouds.


Feels Like: 35 °F
Forecast: 39 / 46 °F
Wind: 16 mph from South

Location: Duesseldorf

Current Time: Mar 1, 2015 at 2:23:04 AM

Latest Report: Mar 1, 2015 at 1:50 AM


Visibility: N/A

Pressure: 29.68 "Hg

Humidity: 61%

Dew point: 30 °F

Location of Monheim am RheinLocation

Historic Weather in Monheim am Rhein — Graph

°F

Monheim am Rhein temperature yesterday

Maximum temperature yesterday: 48 °F (at 2:50 PM)
Minimum temperature yesterday: 28 °F (at 4:20 AM)
Average temperature yesterday: 39 °F

Past Weeks' High & Low Weather Summary

 TemperatureHumidityPressure
High54 °F (Feb 14, 2:20 PM)100% (Feb 15, 4:20 AM)30.77 "Hg (Feb 15, 4:20 AM)
Low27 °F (Feb 15, 7:50 AM)43% (Feb 28, 3:50 PM)29.36 "Hg (Feb 21, 3:50 AM)
Average40 °F81%29.97 "Hg
* Reported Feb 14 1:20 AM — Mar 1 1:20 AM, Monheim am Rhein, Weather by CustomWeather, © 2015

Note: Actual official high and low records may vary slightly from our data, if they occured in-between our weather recording intervals... More about our weather records

Advertising

Monheim am Rhein weather history for previous 24 hours

 ConditionsComfort  
Time TempWeatherWind HumidityBarometerVisibility
1:20 AM
Sun, Mar 1
45 °FLight rain. Passing clouds.18 mph49%29.74 "HgN/A
12:50 AM45 °FPassing clouds.18 mph49%29.74 "HgN/A
12:20 AM45 °FPassing clouds.20 mph49%29.74 "HgN/A
11:50 PM
Sat, Feb 28
45 °FPassing clouds.22 mph49%29.74 "HgN/A
11:20 PM43 °FPassing clouds.21 mph53%29.77 "HgN/A
10:50 PM43 °FPassing clouds.20 mph53%29.80 "HgN/A
10:20 PM45 °FPassing clouds.21 mph49%29.83 "HgN/A
9:50 PM45 °FPassing clouds.18 mph49%29.83 "HgN/A
9:20 PM45 °FPassing clouds.21 mph49%29.86 "HgN/A
8:50 PM43 °FPassing clouds.18 mph53%29.86 "HgN/A
8:20 PM45 °FPassing clouds.18 mph49%29.89 "HgN/A
7:50 PM45 °FPassing clouds.17 mph53%29.89 "HgN/A
7:20 PM45 °FClear.20 mph53%29.92 "Hg10 mi
6:50 PM45 °FClear.16 mph53%29.92 "Hg10 mi
6:20 PM45 °FClear.16 mph49%29.92 "Hg10 mi
5:50 PM45 °FSunny.16 mph53%29.92 "Hg10 mi
5:20 PM46 °FSunny.16 mph46%29.95 "Hg10 mi
4:50 PM46 °FSunny.16 mph46%29.95 "Hg10 mi
4:20 PM48 °FScattered clouds.14 mph43%29.98 "HgN/A
3:50 PM48 °FScattered clouds.16 mph43%29.98 "HgN/A
3:20 PM48 °FScattered clouds.14 mph50%30.01 "HgN/A
2:50 PM48 °FScattered clouds.14 mph46%30.01 "HgN/A
2:20 PM46 °FBroken clouds.13 mph50%30.04 "HgN/A
1:50 PM46 °FBroken clouds.14 mph53%30.04 "HgN/A
1:20 PM46 °FPartly sunny.14 mph50%30.04 "HgN/A
12:50 PM45 °FPartly sunny.14 mph57%30.07 "HgN/A
12:20 PM45 °FSunny.14 mph57%30.09 "Hg10 mi
11:50 AM43 °FSunny.14 mph61%30.09 "Hg10 mi
11:20 AM41 °FSunny.13 mph66%30.09 "Hg10 mi
10:50 AM41 °FSunny.12 mph66%30.09 "Hg10 mi
10:20 AM39 °FSunny.12 mph75%30.12 "Hg10 mi
9:50 AM37 °FSunny.9 mph81%30.12 "Hg10 mi
9:20 AM36 °FSunny.12 mph87%30.12 "Hg10 mi
8:50 AM34 °FSunny.13 mph93%30.12 "Hg10 mi
8:20 AM32 °FSunny.10 mph100%30.12 "Hg10 mi
7:50 AM32 °FSunny.10 mph93%30.12 "Hg10 mi
7:20 AM30 °FClear.10 mph100%30.12 "Hg10 mi
6:50 AM30 °FClear.10 mph100%30.12 "Hg10 mi
6:20 AM30 °FClear.10 mph100%30.12 "Hg10 mi
5:50 AM30 °FClear.9 mph100%30.12 "Hg10 mi
5:20 AM30 °FClear.6 mph100%30.12 "Hg10 mi
4:50 AM28 °FClear.3 mph100%30.15 "Hg10 mi
4:20 AM28 °FClear.3 mph100%30.15 "Hg10 mi
3:50 AM30 °FClear.2 mph93%30.15 "Hg10 mi
3:20 AM30 °FClear.3 mph100%30.15 "Hg10 mi
2:50 AM30 °FClear.7 mph100%30.15 "Hg10 mi
2:20 AM30 °FClear.6 mph93%30.15 "Hg10 mi
Weather by CustomWeather, © 2015

See weather overviewHow to use our weather pages